Time,TemperatureF,DewpointF,PressureIn,WindDirection,WindDirectionDegrees,WindSpeedMPH,WindSpeedGustMPH,Humidity,HourlyPrecipIn,Conditions,Clouds,dailyrainin,SoftwareType,DateUTC
2013-01-26 01:52:00,36.7,35.7,30.24,NW,326,0.0,0.0,96,0.00,,,0.00,WeatherTracker,2013-01-26 07:52:00,
2013-01-26 01:57:00,36.7,35.7,30.24,NW,326,0.0,0.0,96,0.00,,,0.00,WeatherTracker,2013-01-26 07:57:00,
2013-01-26 02:02:00,36.7,35.7,30.24,NW,326,0.0,0.0,96,0.00,,,0.00,WeatherTracker,2013-01-26 08:02:00,
2013-01-26 02:07:00,36.7,35.7,30.24,NNW,327,0.0,0.0,96,0.00,,,0.00,WeatherTracker,2013-01-26 08:07:00,
2013-01-26 02:12:00,36.6,35.6,30.24,West,273,0.0,0.0,96,0.00,,,0.00,WeatherTracker,2013-01-26 08:12:00,
2013-01-26 02:18:00,36.6,35.6,30.24,West,273,0.0,0.0,96,0.00,,,0.00,WeatherTracker,2013-01-26 08:18:00,
2013-01-26 02:23:00,36.6,35.6,30.24,West,274,0.0,0.0,96,0.00,,,0.00,WeatherTracker,2013-01-26 08:23:00,
2013-01-26 02:28:00,36.5,35.5,30.24,WSW,253,0.0,0.0,96,0.00,,,0.00,WeatherTracker,2013-01-26 08:28:00,
2013-01-26 02:33:00,36.4,35.4,30.24,WSW,242,0.0,0.0,96,0.00,,,0.00,WeatherTracker,2013-01-26 08:33:00,
2013-01-26 02:38:00,36.4,35.4,30.24,WSW,242,0.0,0.0,96,0.00,,,0.00,WeatherTracker,2013-01-26 08:38:00,
2013-01-26 02:43:00,36.3,35.3,30.24,WSW,241,0.0,0.0,96,0.00,,,0.00,WeatherTracker,2013-01-26 08:43:00,
2013-01-26 02:48:00,36.1,35.1,30.24,NNW,333,0.0,0.0,96,0.00,,,0.00,WeatherTracker,2013-01-26 08:48:00,
2013-01-26 02:53:00,36.0,35.0,30.24,NNW,333,0.0,0.0,96,0.00,,,0.00,WeatherTracker,2013-01-26 08:53:00,
2013-01-26 02:58:00,35.9,34.9,30.24,NNW,333,0.0,0.0,96,0.00,,,0.00,WeatherTracker,2013-01-26 08:58:00,
2013-01-26 03:03:00,35.8,34.8,30.25,NNW,333,0.0,0.0,96,0.00,,,0.00,WeatherTracker,2013-01-26 09:03:00,
2013-01-26 03:08:00,35.7,34.7,30.25,WSW,248,0.0,0.0,96,0.00,,,0.00,WeatherTracker,2013-01-26 09:08:00,
2013-01-26 03:13:00,35.6,34.6,30.25,NW,306,0.0,0.0,96,0.00,,,0.00,WeatherTracker,2013-01-26 09:13:00,
2013-01-26 03:18:00,35.3,34.3,30.25,SSE,152,0.0,0.0,96,0.00,,,0.00,WeatherTracker,2013-01-26 09:18:00,
2013-01-26 03:23:00,35.2,33.9,30.25,SSE,153,0.0,0.0,95,0.00,,,0.00,WeatherTracker,2013-01-26 09:23:00,
2013-01-26 03:28:00,35.2,33.9,30.25,NE,43,0.0,0.0,95,0.00,,,0.00,WeatherTracker,2013-01-26 09:28:00,
2013-01-26 03:33:00,35.1,33.8,30.25,ENE,67,0.0,0.0,95,0.00,,,0.00,WeatherTracker,2013-01-26 09:33:00,
2013-01-26 03:38:00,35.0,33.7,30.25,NNW,344,0.0,0.0,95,0.00,,,0.00,WeatherTracker,2013-01-26 09:38:00,
2013-01-26 03:43:00,34.9,33.9,30.25,SE,145,0.0,0.0,96,0.00,,,0.00,WeatherTracker,2013-01-26 09:43:00,
2013-01-26 03:48:00,34.7,33.4,30.25,SSW,201,0.0,0.0,95,0.00,,,0.00,WeatherTracker,2013-01-26 09:48:00,
2013-01-26 03:53:00,34.5,33.2,30.25,SSW,200,0.0,0.0,95,0.00,,,0.00,WeatherTracker,2013-01-26 09:53:00,
2013-01-26 03:58:00,34.4,33.1,30.25,SSW,200,0.0,0.0,95,0.00,,,0.00,WeatherTracker,2013-01-26 09:58:00,
2013-01-26 04:03:00,34.4,33.1,30.25,SSW,200,0.0,0.0,95,0.00,,,0.00,WeatherTracker,2013-01-26 10:03:00,
2013-01-26 04:08:00,34.4,33.1,30.25,ESE,122,0.0,0.0,95,0.00,,,0.00,WeatherTracker,2013-01-26 10:08:00,
2013-01-26 04:13:00,34.2,33.2,30.25,ENE,61,0.0,0.0,96,0.00,,,0.00,WeatherTracker,2013-01-26 10:13:00,
2013-01-26 04:18:00,34.0,32.7,30.25,SSE,163,0.0,0.0,95,0.00,,,0.00,WeatherTracker,2013-01-26 10:18:00,
2013-01-26 04:23:00,33.8,32.5,30.25,SSE,159,0.0,0.0,95,0.00,,,0.00,WeatherTracker,2013-01-26 10:23:00,
2013-01-26 04:28:00,33.6,32.3,30.25,SSE,159,2.0,0.0,95,0.00,,,0.00,WeatherTracker,2013-01-26 10:28:00,
2013-01-26 04:34:00,33.4,32.1,30.24,SSE,150,0.0,0.0,95,0.00,,,0.00,WeatherTracker,2013-01-26 10:34:00,
2013-01-26 04:39:00,33.4,32.1,30.25,SSE,150,0.0,0.0,95,0.00,,,0.00,WeatherTracker,2013-01-26 10:39:00,
2013-01-26 04:44:00,33.3,32.0,30.25,SSE,150,0.0,0.0,95,0.00,,,0.00,WeatherTracker,2013-01-26 10:44:00,
2013-01-26 04:49:00,33.2,31.9,30.25,SSE,150,0.0,0.0,95,0.00,,,0.00,WeatherTracker,2013-01-26 10:49:00,
2013-01-26 04:54:00,33.1,31.8,30.25,SSE,150,0.0,0.0,95,0.00,,,0.00,WeatherTracker,2013-01-26 10:54:00,
2013-01-26 04:59:00,33.0,32.0,30.25,SSE,150,0.0,0.0,96,0.00,,,0.00,WeatherTracker,2013-01-26 10:59:00,
2013-01-26 05:04:00,32.9,31.6,30.25,SSE,150,0.0,0.0,95,0.00,,,0.00,WeatherTracker,2013-01-26 11:04:00,
2013-01-26 05:09:00,32.9,31.6,30.25,SSE,150,0.0,0.0,95,0.00,,,0.00,WeatherTracker,2013-01-26 11:09:00,
2013-01-26 05:14:00,32.8,31.5,30.26,SSE,150,0.0,0.0,95,0.00,,,0.00,WeatherTracker,2013-01-26 11:14:00,
2013-01-26 05:19:00,32.8,31.5,30.26,SSE,150,0.0,0.0,95,0.00,,,0.00,WeatherTracker,2013-01-26 11:19:00,
2013-01-26 05:24:00,32.7,31.4,30.27,SSE,150,0.0,0.0,95,0.00,,,0.00,WeatherTracker,2013-01-26 11:24:00,
2013-01-26 05:29:00,32.6,31.3,30.26,SSE,150,0.0,0.0,95,0.00,,,0.00,WeatherTracker,2013-01-26 11:29:00,
2013-01-26 05:34:00,32.6,31.3,30.27,SSE,150,0.0,0.0,95,0.00,,,0.00,WeatherTracker,2013-01-26 11:34:00,
2013-01-26 05:39:00,32.5,31.5,30.27,SSE,150,0.0,0.0,96,0.00,,,0.00,WeatherTracker,2013-01-26 11:39:00,
2013-01-26 05:44:00,32.5,31.5,30.27,SSE,150,0.0,0.0,96,0.00,,,0.00,WeatherTracker,2013-01-26 11:44:00,
2013-01-26 05:49:00,32.5,31.5,30.27,SSE,150,0.0,0.0,96,0.00,,,0.00,WeatherTracker,2013-01-26 11:49:00,
2013-01-26 05:54:00,32.5,31.5,30.27,SSE,150,0.0,0.0,96,0.00,,,0.00,WeatherTracker,2013-01-26 11:54:00,
2013-01-26 05:59:00,32.5,31.5,30.27,SSE,150,0.0,0.0,96,0.00,,,0.00,WeatherTracker,2013-01-26 11:59:00,
2013-01-26 06:04:00,32.5,31.5,30.27,SSE,150,0.0,0.0,96,0.00,,,0.00,WeatherTracker,2013-01-26 12:04:00,
2013-01-26 06:09:00,32.5,31.5,30.28,SSE,150,0.0,0.0,96,0.00,,,0.00,WeatherTracker,2013-01-26 12:09:00,
2013-01-26 06:14:00,32.5,31.5,30.28,SSE,150,0.0,0.0,96,0.00,,,0.00,WeatherTracker,2013-01-26 12:14:00,
2013-01-26 06:19:00,32.5,31.5,30.28,SSE,150,0.0,0.0,96,0.00,,,0.00,WeatherTracker,2013-01-26 12:19:00,
2013-01-26 06:24:00,32.4,31.4,30.28,SSE,150,0.0,0.0,96,0.00,,,0.00,WeatherTracker,2013-01-26 12:24:00,
2013-01-26 06:30:00,32.4,31.4,30.28,SSE,150,0.0,0.0,96,0.00,,,0.00,WeatherTracker,2013-01-26 12:30:00,
2013-01-26 06:35:00,32.4,31.4,30.28,SSE,150,0.0,0.0,96,0.00,,,0.00,WeatherTracker,2013-01-26 12:35:00,
2013-01-26 06:40:00,32.3,31.0,30.29,SSE,150,0.0,0.0,95,0.00,,,0.00,WeatherTracker,2013-01-26 12:40:00,
2013-01-26 06:45:00,32.2,30.9,30.29,SSE,150,0.0,0.0,95,0.00,,,0.00,WeatherTracker,2013-01-26 12:45:00,
2013-01-26 06:50:00,32.1,30.8,30.30,SSE,150,0.0,0.0,95,0.00,,,0.00,WeatherTracker,2013-01-26 12:50:00,
2013-01-26 06:55:00,32.1,30.8,30.30,SSE,150,0.0,0.0,95,0.00,,,0.00,WeatherTracker,2013-01-26 12:55:00,
2013-01-26 07:00:00,32.0,31.0,30.30,SSE,150,0.0,0.0,96,0.00,,,0.00,WeatherTracker,2013-01-26 13:00:00,
2013-01-26 07:05:00,31.9,30.6,30.30,SSE,150,0.0,0.0,95,0.00,,,0.00,WeatherTracker,2013-01-26 13:05:00,
2013-01-26 07:10:00,31.9,30.6,30.30,SSE,150,0.0,0.0,95,0.00,,,0.00,WeatherTracker,2013-01-26 13:10:00,
2013-01-26 07:15:00,31.9,30.6,30.30,SSE,150,0.0,0.0,95,0.00,,,0.00,WeatherTracker,2013-01-26 13:15:00,
2013-01-26 07:20:00,31.9,30.6,30.30,SSE,150,0.0,0.0,95,0.00,,,0.00,WeatherTracker,2013-01-26 13:20:00,
2013-01-26 07:25:00,31.9,30.6,30.30,SSE,150,0.0,0.0,95,0.00,,,0.00,WeatherTracker,2013-01-26 13:25:00,
2013-01-26 07:30:00,31.9,30.9,30.30,SSE,150,0.0,0.0,96,0.00,,,0.00,WeatherTracker,2013-01-26 13:30:00,
2013-01-26 07:35:00,32.0,31.0,30.30,SSE,150,0.0,0.0,96,0.00,,,0.00,WeatherTracker,2013-01-26 13:35:00,
2013-01-26 07:40:00,32.1,31.1,30.30,SSE,150,0.0,0.0,96,0.00,,,0.00,WeatherTracker,2013-01-26 13:40:00,
2013-01-26 07:45:00,32.2,31.2,30.30,SSE,150,0.0,0.0,96,0.00,,,0.00,WeatherTracker,2013-01-26 13:45:00,
2013-01-26 07:50:00,32.2,31.2,30.30,SSE,150,0.0,0.0,96,0.00,,,0.00,WeatherTracker,2013-01-26 13:50:00,
2013-01-26 07:55:00,32.3,31.3,30.30,SSE,150,0.0,0.0,96,0.00,,,0.00,WeatherTracker,2013-01-26 13:55:00,
2013-01-26 08:00:00,32.4,31.4,30.30,SSE,150,0.0,0.0,96,0.00,,,0.00,WeatherTracker,2013-01-26 14:00:00,
2013-01-26 08:05:00,32.4,31.4,30.31,SSE,150,0.0,0.0,96,0.00,,,0.00,WeatherTracker,2013-01-26 14:05:00,
2013-01-26 08:10:00,32.5,31.5,30.31,SSE,150,0.0,0.0,96,0.00,,,0.00,WeatherTracker,2013-01-26 14:10:00,
2013-01-26 08:15:00,32.6,31.6,30.32,SSE,150,0.0,0.0,96,0.00,,,0.00,WeatherTracker,2013-01-26 14:15:00,
2013-01-26 08:20:00,32.6,31.6,30.32,SSE,150,0.0,0.0,96,0.00,,,0.00,WeatherTracker,2013-01-26 14:20:00,
2013-01-26 08:26:00,32.6,31.6,30.32,SSE,150,0.0,0.0,96,0.00,,,0.00,WeatherTracker,2013-01-26 14:26:00,
2013-01-26 08:31:00,32.7,31.7,30.32,SSE,150,0.0,0.0,96,0.00,,,0.00,WeatherTracker,2013-01-26 14:31:00,
2013-01-26 08:36:00,32.8,31.8,30.32,SSE,150,0.0,0.0,96,0.00,,,0.00,WeatherTracker,2013-01-26 14:36:00,
2013-01-26 08:41:00,32.9,31.9,30.32,SSE,150,0.0,0.0,96,0.00,,,0.00,WeatherTracker,2013-01-26 14:41:00,
2013-01-26 08:46:00,33.0,32.0,30.32,SSE,150,0.0,0.0,96,0.00,,,0.00,WeatherTracker,2013-01-26 14:46:00,
2013-01-26 08:51:00,33.2,32.2,30.32,SSE,150,0.0,0.0,96,0.00,,,0.00,WeatherTracker,2013-01-26 14:51:00,
2013-01-26 08:56:00,33.3,32.3,30.32,SSE,150,0.0,0.0,96,0.00,,,0.00,WeatherTracker,2013-01-26 14:56:00,
2013-01-26 09:01:00,33.5,32.5,30.32,SSE,150,0.0,0.0,96,0.00,,,0.00,WeatherTracker,2013-01-26 15:01:00,
2013-01-26 09:06:00,33.7,32.7,30.33,SSE,150,0.0,0.0,96,0.00,,,0.00,WeatherTracker,2013-01-26 15:06:00,
2013-01-26 09:11:00,33.9,32.9,30.33,SSE,150,1.0,0.0,96,0.00,,,0.00,WeatherTracker,2013-01-26 15:11:00,
2013-01-26 09:16:00,34.2,33.2,30.33,SSE,150,0.0,0.0,96,0.00,,,0.00,WeatherTracker,2013-01-26 15:16:00,
2013-01-26 09:21:00,34.4,33.4,30.33,SSE,150,0.0,0.0,96,0.00,,,0.00,WeatherTracker,2013-01-26 15:21:00,
2013-01-26 09:26:00,34.5,33.5,30.33,SSE,150,0.0,0.0,96,0.00,,,0.00,WeatherTracker,2013-01-26 15:26:00,
2013-01-26 09:31:00,34.8,33.8,30.33,SSE,150,0.0,0.0,96,0.00,,,0.00,WeatherTracker,2013-01-26 15:31:00,
2013-01-26 09:36:00,35.0,34.0,30.33,SSE,150,0.0,0.0,96,0.00,,,0.00,WeatherTracker,2013-01-26 15:36:00,
2013-01-26 09:41:00,35.3,34.3,30.33,SSE,150,0.0,0.0,96,0.00,,,0.00,WeatherTracker,2013-01-26 15:41:00,
2013-01-26 09:46:00,35.4,34.4,30.33,SSE,150,0.0,0.0,96,0.00,,,0.00,WeatherTracker,2013-01-26 15:46:00,
2013-01-26 09:51:00,35.6,34.6,30.33,SSE,150,0.0,0.0,96,0.00,,,0.00,WeatherTracker,2013-01-26 15:51:00,
2013-01-26 09:56:00,35.7,34.7,30.34,SSE,150,0.0,0.0,96,0.00,,,0.00,WeatherTracker,2013-01-26 15:56:00,
2013-01-26 10:01:00,35.9,34.9,30.34,SSE,150,0.0,0.0,96,0.00,,,0.00,WeatherTracker,2013-01-26 16:01:00,
2013-01-26 10:06:00,36.0,35.0,30.34,WNW,292,0.0,0.0,96,0.00,,,0.00,WeatherTracker,2013-01-26 16:06:00,
2013-01-26 10:12:00,36.1,35.1,30.34,WNW,294,0.0,0.0,96,0.00,,,0.00,WeatherTracker,2013-01-26 16:12:00,
2013-01-26 10:17:00,36.4,35.4,30.34,WNW,293,0.0,0.0,96,0.00,,,0.00,WeatherTracker,2013-01-26 16:17:00,
2013-01-26 10:22:00,36.8,35.8,30.34,WNW,292,0.0,0.0,96,0.00,,,0.00,WeatherTracker,2013-01-26 16:22:00,
2013-01-26 10:27:00,37.2,36.2,30.34,SSE,163,0.0,0.0,96,0.00,,,0.00,WeatherTracker,2013-01-26 16:27:00,
2013-01-26 10:32:00,37.8,36.8,30.34,East,101,0.0,0.0,96,0.00,,,0.00,WeatherTracker,2013-01-26 16:32:00,
2013-01-26 10:37:00,38.4,37.1,30.34,SE,142,0.0,0.0,95,0.00,,,0.00,WeatherTracker,2013-01-26 16:37:00,
2013-01-26 10:42:00,39.1,36.7,30.34,SE,145,0.0,0.0,91,0.00,,,0.00,WeatherTracker,2013-01-26 16:42:00,
2013-01-26 10:47:00,39.8,36.5,30.34,SE,145,0.0,0.0,88,0.00,,,0.00,WeatherTracker,2013-01-26 16:47:00,
2013-01-26 10:52:00,40.7,36.8,30.34,East,98,0.0,0.0,86,0.00,,,0.00,WeatherTracker,2013-01-26 16:52:00,
2013-01-26 10:57:00,41.4,36.9,30.34,SE,146,1.0,0.0,84,0.00,,,0.00,WeatherTracker,2013-01-26 16:57:00,
2013-01-26 11:02:00,41.9,36.8,30.34,SE,146,0.0,0.0,82,0.00,,,0.00,WeatherTracker,2013-01-26 17:02:00,
2013-01-26 11:07:00,42.3,36.6,30.34,SE,146,1.0,0.0,80,0.00,,,0.00,WeatherTracker,2013-01-26 17:07:00,
2013-01-26 11:12:00,42.5,35.8,30.33,ENE,67,0.0,0.0,77,0.00,,,0.00,WeatherTracker,2013-01-26 17:12:00,
2013-01-26 11:17:00,42.7,35.7,30.33,East,101,0.0,0.0,76,0.00,,,0.00,WeatherTracker,2013-01-26 17:17:00,
2013-01-26 11:22:00,42.8,35.4,30.33,East,94,0.0,0.0,75,0.00,,,0.00,WeatherTracker,2013-01-26 17:22:00,
2013-01-26 11:27:00,43.2,36.2,30.33,East,94,0.0,0.0,76,0.00,,,0.00,WeatherTracker,2013-01-26 17:27:00,
2013-01-26 11:32:00,43.5,35.1,30.33,SE,145,0.0,0.0,72,0.00,,,0.00,WeatherTracker,2013-01-26 17:32:00,
2013-01-26 11:37:00,43.8,35.4,30.32,SE,145,0.0,0.0,72,0.00,,,0.00,WeatherTracker,2013-01-26 17:37:00,
2013-01-26 11:43:00,43.8,34.7,30.32,ENE,60,0.0,0.0,70,0.00,,,0.00,WeatherTracker,2013-01-26 17:43:00,
2013-01-26 11:48:00,43.8,34.7,30.32,ESE,105,0.0,0.0,70,0.00,,,0.00,WeatherTracker,2013-01-26 17:48:00,
2013-01-26 11:53:00,43.9,35.5,30.32,ESE,106,0.0,0.0,72,0.00,,,0.00,WeatherTracker,2013-01-26 17:53:00,
2013-01-26 11:58:00,44.1,35.3,30.31,ESE,106,0.0,0.0,71,0.00,,,0.00,WeatherTracker,2013-01-26 17:58:00,
2013-01-26 12:03:00,44.2,35.4,30.31,ESE,107,0.0,0.0,71,0.00,,,0.00,WeatherTracker,2013-01-26 18:03:00,
2013-01-26 12:08:00,44.3,35.1,30.31,ESE,106,0.0,0.0,70,0.00,,,0.00,WeatherTracker,2013-01-26 18:08:00,
2013-01-26 12:13:00,44.4,35.6,30.31,ESE,107,0.0,0.0,71,0.00,,,0.00,WeatherTracker,2013-01-26 18:13:00,
2013-01-26 12:18:00,44.5,34.2,30.30,NW,313,0.0,0.0,67,0.00,,,0.00,WeatherTracker,2013-01-26 18:18:00,
2013-01-26 12:23:00,44.5,33.9,30.30,NW,321,0.0,0.0,66,0.00,,,0.00,WeatherTracker,2013-01-26 18:23:00,
2013-01-26 12:28:00,44.8,33.4,30.30,East,84,0.0,0.0,64,0.00,,,0.00,WeatherTracker,2013-01-26 18:28:00,
2013-01-26 12:33:00,45.0,32.8,30.30,NNW,336,0.0,0.0,62,0.00,,,0.00,WeatherTracker,2013-01-26 18:33:00,
2013-01-26 12:38:00,45.3,33.1,30.30,NNW,333,0.0,0.0,62,0.00,,,0.00,WeatherTracker,2013-01-26 18:38:00,
2013-01-26 12:43:00,45.7,34.2,30.30,ENE,77,0.0,0.0,64,0.00,,,0.00,WeatherTracker,2013-01-26 18:43:00,
2013-01-26 12:48:00,45.9,34.0,30.30,NNE,12,1.0,0.0,63,0.00,,,0.00,WeatherTracker,2013-01-26 18:48:00,
2013-01-26 12:53:00,46.2,33.9,30.30,East,98,0.0,0.0,62,0.00,,,0.00,WeatherTracker,2013-01-26 18:53:00,
2013-01-26 12:58:00,46.4,35.3,30.30,WNW,300,3.0,0.0,65,0.00,,,0.00,WeatherTracker,2013-01-26 18:58:00,
2013-01-26 13:03:00,46.5,33.8,30.29,WNW,300,0.0,0.0,61,0.00,,,0.00,WeatherTracker,2013-01-26 19:03:00,
2013-01-26 13:08:00,46.5,35.0,30.29,NE,53,0.0,0.0,64,0.00,,,0.00,WeatherTracker,2013-01-26 19:08:00,
2013-01-26 13:13:00,46.5,34.2,30.29,East,90,0.0,0.0,62,0.00,,,0.00,WeatherTracker,2013-01-26 19:13:00,
2013-01-26 13:18:00,46.7,35.2,30.29,West,273,0.0,0.0,64,0.00,,,0.00,WeatherTracker,2013-01-26 19:18:00,
2013-01-26 13:24:00,47.0,35.5,30.29,WNW,284,0.0,0.0,64,0.00,,,0.00,WeatherTracker,2013-01-26 19:24:00,
2013-01-26 13:29:00,47.2,34.9,30.29,SE,126,0.0,0.0,62,0.00,,,0.00,WeatherTracker,2013-01-26 19:29:00,
2013-01-26 13:34:00,47.4,35.4,30.29,SE,138,0.0,0.0,63,0.00,,,0.00,WeatherTracker,2013-01-26 19:34:00,
2013-01-26 13:39:00,47.6,34.8,30.29,SE,138,0.0,0.0,61,0.00,,,0.00,WeatherTracker,2013-01-26 19:39:00,
2013-01-26 13:44:00,48.0,35.6,30.29,WNW,302,1.0,0.0,62,0.00,,,0.00,WeatherTracker,2013-01-26 19:44:00,
2013-01-26 13:49:00,48.5,35.3,30.29,NW,309,0.0,0.0,60,0.00,,,0.00,WeatherTracker,2013-01-26 19:49:00,
2013-01-26 13:54:00,48.8,34.3,30.29,ESE,115,0.0,0.0,57,0.00,,,0.00,WeatherTracker,2013-01-26 19:54:00,
2013-01-26 13:59:00,49.1,35.8,30.29,ENE,77,0.0,0.0,60,0.00,,,0.00,WeatherTracker,2013-01-26 19:59:00,
2013-01-26 14:04:00,49.2,34.6,30.29,SE,133,0.0,0.0,57,0.00,,,0.00,WeatherTracker,2013-01-26 20:04:00,
2013-01-26 14:09:00,49.5,35.3,30.29,SE,133,0.0,0.0,58,0.00,,,0.00,WeatherTracker,2013-01-26 20:09:00,
2013-01-26 14:14:00,49.7,34.2,30.29,SE,132,0.0,0.0,55,0.00,,,0.00,WeatherTracker,2013-01-26 20:14:00,
2013-01-26 14:19:00,49.9,34.4,30.29,ESE,123,0.0,0.0,55,0.00,,,0.00,WeatherTracker,2013-01-26 20:19:00,
2013-01-26 14:24:00,49.8,34.3,30.29,ESE,123,0.0,0.0,55,0.00,,,0.00,WeatherTracker,2013-01-26 20:24:00,
2013-01-26 14:29:00,49.6,34.1,30.29,SSE,153,0.0,0.0,55,0.00,,,0.00,WeatherTracker,2013-01-26 20:29:00,
2013-01-26 14:34:00,49.8,34.3,30.30,WNW,292,0.0,0.0,55,0.00,,,0.00,WeatherTracker,2013-01-26 20:34:00,
2013-01-26 14:39:00,50.1,34.1,30.30,NW,304,0.0,0.0,54,0.00,,,0.00,WeatherTracker,2013-01-26 20:39:00,
2013-01-26 14:44:00,50.2,33.7,30.30,WSW,247,0.0,0.0,53,0.00,,,0.00,WeatherTracker,2013-01-26 20:44:00,
2013-01-26 14:49:00,50.3,32.9,30.30,SSE,153,0.0,0.0,51,0.00,,,0.00,WeatherTracker,2013-01-26 20:49:00,
2013-01-26 14:54:00,50.5,33.1,30.30,WNW,288,1.0,0.0,51,0.00,,,0.00,WeatherTracker,2013-01-26 20:54:00,
2013-01-26 15:00:00,50.7,34.2,30.30,NW,314,0.0,0.0,53,0.00,,,0.00,WeatherTracker,2013-01-26 21:00:00,
2013-01-26 15:05:00,50.7,32.2,30.30,NW,318,0.0,0.0,49,0.00,,,0.00,WeatherTracker,2013-01-26 21:05:00,
2013-01-26 15:10:00,50.6,32.2,30.30,NW,323,0.0,0.0,49,0.00,,,0.00,WeatherTracker,2013-01-26 21:10:00,
2013-01-26 15:15:00,50.6,32.2,30.30,NW,313,0.0,0.0,49,0.00,,,0.00,WeatherTracker,2013-01-26 21:15:00,
2013-01-26 15:20:00,50.5,32.1,30.30,NW,313,0.0,0.0,49,0.00,,,0.00,WeatherTracker,2013-01-26 21:20:00,
2013-01-26 15:25:00,50.3,32.4,30.30,East,91,0.0,0.0,50,0.00,,,0.00,WeatherTracker,2013-01-26 21:25:00,
2013-01-26 15:30:00,50.0,31.6,30.30,East,91,0.0,0.0,49,0.00,,,0.00,WeatherTracker,2013-01-26 21:30:00,
2013-01-26 15:35:00,49.9,32.5,30.30,NNW,340,0.0,0.0,51,0.00,,,0.00,WeatherTracker,2013-01-26 21:35:00,
2013-01-26 15:40:00,49.6,31.7,30.30,NW,306,0.0,0.0,50,0.00,,,0.00,WeatherTracker,2013-01-26 21:40:00,
2013-01-26 15:45:00,49.5,32.6,30.30,NW,306,0.0,0.0,52,0.00,,,0.00,WeatherTracker,2013-01-26 21:45:00,
2013-01-26 15:50:00,49.3,31.5,30.30,NW,306,0.0,0.0,50,0.00,,,0.00,WeatherTracker,2013-01-26 21:50:00,
2013-01-26 15:55:00,49.1,31.8,30.30,NW,307,0.0,0.0,51,0.00,,,0.00,WeatherTracker,2013-01-26 21:55:00,
2013-01-26 16:00:00,48.9,32.1,30.30,NW,307,0.0,0.0,52,0.00,,,0.00,WeatherTracker,2013-01-26 22:00:00,
2013-01-26 16:05:00,48.7,31.9,30.30,NW,307,0.0,0.0,52,0.00,,,0.00,WeatherTracker,2013-01-26 22:05:00,
2013-01-26 16:10:00,48.5,31.7,30.30,NW,307,0.0,0.0,52,0.00,,,0.00,WeatherTracker,2013-01-26 22:10:00,
2013-01-26 16:15:00,48.4,32.1,30.30,NW,307,0.0,0.0,53,0.00,,,0.00,WeatherTracker,2013-01-26 22:15:00,
2013-01-26 16:20:00,48.2,31.9,30.30,NW,307,0.0,0.0,53,0.00,,,0.00,WeatherTracker,2013-01-26 22:20:00,
2013-01-26 16:25:00,48.1,32.2,30.30,NW,307,0.0,0.0,54,0.00,,,0.00,WeatherTracker,2013-01-26 22:25:00,
2013-01-26 16:30:00,47.9,33.0,30.30,NW,307,0.0,0.0,56,0.00,,,0.00,WeatherTracker,2013-01-26 22:30:00,
2013-01-26 16:35:00,47.8,33.3,30.30,NW,307,0.0,0.0,57,0.00,,,0.00,WeatherTracker,2013-01-26 22:35:00,
2013-01-26 16:40:00,47.6,33.6,30.30,NW,307,0.0,0.0,58,0.00,,,0.00,WeatherTracker,2013-01-26 22:40:00,
2013-01-26 16:45:00,47.4,33.4,30.30,NW,307,0.0,0.0,58,0.00,,,0.00,WeatherTracker,2013-01-26 22:45:00,
2013-01-26 16:50:00,47.3,33.3,30.30,NW,307,0.0,0.0,58,0.00,,,0.00,WeatherTracker,2013-01-26 22:50:00,
2013-01-26 16:55:00,47.1,33.9,30.30,NW,307,0.0,0.0,60,0.00,,,0.00,WeatherTracker,2013-01-26 22:55:00,
2013-01-26 17:00:00,46.9,33.7,30.30,NW,307,0.0,0.0,60,0.00,,,0.00,WeatherTracker,2013-01-26 23:00:00,
2013-01-26 17:05:00,46.8,34.1,30.30,NW,307,0.0,0.0,61,0.00,,,0.00,WeatherTracker,2013-01-26 23:05:00,
2013-01-26 17:10:00,46.5,33.8,30.30,NW,307,0.0,0.0,61,0.00,,,0.00,WeatherTracker,2013-01-26 23:10:00,
2013-01-26 17:15:00,46.3,34.0,30.31,NW,307,0.0,0.0,62,0.00,,,0.00,WeatherTracker,2013-01-26 23:15:00,
2013-01-26 17:20:00,46.1,34.2,30.31,NW,307,0.0,0.0,63,0.00,,,0.00,WeatherTracker,2013-01-26 23:20:00,
2013-01-26 17:25:00,45.8,33.9,30.31,NW,307,0.0,0.0,63,0.00,,,0.00,WeatherTracker,2013-01-26 23:25:00,
2013-01-26 17:30:00,45.6,33.7,30.31,NW,307,0.0,0.0,63,0.00,,,0.00,WeatherTracker,2013-01-26 23:30:00,
2013-01-26 17:35:00,45.4,33.9,30.30,NW,307,0.0,0.0,64,0.00,,,0.00,WeatherTracker,2013-01-26 23:35:00,
2013-01-26 17:40:00,45.1,33.7,30.30,NW,307,0.0,0.0,64,0.00,,,0.00,WeatherTracker,2013-01-26 23:40:00,
2013-01-26 17:46:00,44.9,33.9,30.30,NW,307,0.0,0.0,65,0.00,,,0.00,WeatherTracker,2013-01-26 23:46:00,
2013-01-26 17:51:00,44.6,33.6,30.30,NW,307,0.0,0.0,65,0.00,,,0.00,WeatherTracker,2013-01-26 23:51:00,
2013-01-26 17:56:00,44.3,33.7,30.30,NW,307,0.0,0.0,66,0.00,,,0.00,WeatherTracker,2013-01-26 23:56:00,
2013-01-26 18:01:00,44.0,33.8,30.30,NW,307,0.0,0.0,67,0.00,,,0.00,WeatherTracker,2013-01-27 00:01:00,
2013-01-26 18:06:00,43.7,33.5,30.30,NW,307,0.0,0.0,67,0.00,,,0.00,WeatherTracker,2013-01-27 00:06:00,
2013-01-26 18:11:00,43.4,33.6,30.31,NW,307,0.0,0.0,68,0.00,,,0.00,WeatherTracker,2013-01-27 00:11:00,
2013-01-26 18:16:00,43.0,33.2,30.31,NW,307,0.0,0.0,68,0.00,,,0.00,WeatherTracker,2013-01-27 00:16:00,
2013-01-26 18:21:00,42.7,33.2,30.31,NW,307,0.0,0.0,69,0.00,,,0.00,WeatherTracker,2013-01-27 00:21:00,
2013-01-26 18:26:00,42.4,33.3,30.31,NW,307,0.0,0.0,70,0.00,,,0.00,WeatherTracker,2013-01-27 00:26:00,
2013-01-26 18:31:00,42.1,33.0,30.31,NW,307,0.0,0.0,70,0.00,,,0.00,WeatherTracker,2013-01-27 00:31:00,
2013-01-26 18:36:00,41.9,32.8,30.31,NW,307,0.0,0.0,70,0.00,,,0.00,WeatherTracker,2013-01-27 00:36:00,
2013-01-26 18:41:00,41.8,33.1,30.31,NW,307,0.0,0.0,71,0.00,,,0.00,WeatherTracker,2013-01-27 00:41:00,
2013-01-26 18:46:00,41.5,32.8,30.32,NW,307,0.0,0.0,71,0.00,,,0.00,WeatherTracker,2013-01-27 00:46:00,
2013-01-26 18:51:00,41.4,33.1,30.32,NW,307,0.0,0.0,72,0.00,,,0.00,WeatherTracker,2013-01-27 00:51:00,
2013-01-26 18:56:00,41.3,33.3,30.32,NW,307,0.0,0.0,73,0.00,,,0.00,WeatherTracker,2013-01-27 00:56:00,
2013-01-26 19:01:00,41.3,33.6,30.32,NW,307,0.0,0.0,74,0.00,,,0.00,WeatherTracker,2013-01-27 01:01:00,
2013-01-26 19:06:00,41.3,33.6,30.32,NW,307,0.0,0.0,74,0.00,,,0.00,WeatherTracker,2013-01-27 01:06:00,
2013-01-26 19:11:00,41.3,33.6,30.32,NW,307,0.0,0.0,74,0.00,,,0.00,WeatherTracker,2013-01-27 01:11:00,
2013-01-26 19:16:00,41.3,33.6,30.31,NW,307,0.0,0.0,74,0.00,,,0.00,WeatherTracker,2013-01-27 01:16:00,
2013-01-26 19:21:00,41.4,33.7,30.32,NW,307,0.0,0.0,74,0.00,,,0.00,WeatherTracker,2013-01-27 01:21:00,
2013-01-26 19:26:00,41.5,34.2,30.32,NW,307,0.0,0.0,75,0.00,,,0.00,WeatherTracker,2013-01-27 01:26:00,
2013-01-26 19:32:00,41.7,34.7,30.32,NW,307,0.0,0.0,76,0.00,,,0.00,WeatherTracker,2013-01-27 01:32:00,
2013-01-26 19:37:00,41.7,34.4,30.32,NW,307,0.0,0.0,75,0.00,,,0.00,WeatherTracker,2013-01-27 01:37:00,
2013-01-26 19:42:00,41.7,34.4,30.32,NW,307,0.0,0.0,75,0.00,,,0.00,WeatherTracker,2013-01-27 01:42:00,
2013-01-26 19:47:00,41.8,34.5,30.32,NW,307,0.0,0.0,75,0.00,,,0.00,WeatherTracker,2013-01-27 01:47:00,
2013-01-26 19:52:00,41.8,34.5,30.32,NW,307,0.0,0.0,75,0.00,,,0.00,WeatherTracker,2013-01-27 01:52:00,
2013-01-26 19:57:00,41.8,34.5,30.32,NW,307,0.0,0.0,75,0.00,,,0.00,WeatherTracker,2013-01-27 01:57:00,
2013-01-26 20:02:00,41.8,34.8,30.32,NW,307,0.0,0.0,76,0.00,,,0.00,WeatherTracker,2013-01-27 02:02:00,
2013-01-26 20:07:00,41.9,34.6,30.32,NW,307,0.0,0.0,75,0.00,,,0.00,WeatherTracker,2013-01-27 02:07:00,
2013-01-26 20:12:00,41.9,35.2,30.32,NW,307,0.0,0.0,77,0.00,,,0.00,WeatherTracker,2013-01-27 02:12:00,
2013-01-26 20:17:00,42.0,34.7,30.33,NW,306,0.0,0.0,75,0.00,,,0.00,WeatherTracker,2013-01-27 02:17:00,
2013-01-26 20:22:00,42.0,34.7,30.32,NW,306,0.0,0.0,75,0.00,,,0.00,WeatherTracker,2013-01-27 02:22:00,
2013-01-26 20:27:00,42.0,35.0,30.32,NW,306,0.0,0.0,76,0.00,,,0.00,WeatherTracker,2013-01-27 02:27:00,
2013-01-26 20:32:00,42.0,35.0,30.32,NW,306,0.0,0.0,76,0.00,,,0.00,WeatherTracker,2013-01-27 02:32:00,
2013-01-26 20:37:00,42.0,35.3,30.32,NW,306,0.0,0.0,77,0.00,,,0.00,WeatherTracker,2013-01-27 02:37:00,
2013-01-26 20:42:00,42.0,35.0,30.32,NW,306,0.0,0.0,76,0.00,,,0.00,WeatherTracker,2013-01-27 02:42:00,
2013-01-26 20:47:00,42.0,35.0,30.32,NW,306,0.0,0.0,76,0.00,,,0.00,WeatherTracker,2013-01-27 02:47:00,
2013-01-26 20:52:00,42.0,35.0,30.32,NW,306,0.0,0.0,76,0.00,,,0.00,WeatherTracker,2013-01-27 02:52:00,
2013-01-26 20:57:00,42.0,35.0,30.32,NW,306,0.0,0.0,76,0.00,,,0.00,WeatherTracker,2013-01-27 02:57:00,
2013-01-26 21:02:00,41.9,34.6,30.32,NW,306,0.0,0.0,75,0.00,,,0.00,WeatherTracker,2013-01-27 03:02:00,
2013-01-26 21:07:00,41.9,34.2,30.32,NW,306,0.0,0.0,74,0.00,,,0.00,WeatherTracker,2013-01-27 03:07:00,
2013-01-26 21:12:00,41.9,33.9,30.32,NW,306,0.0,0.0,73,0.00,,,0.00,WeatherTracker,2013-01-27 03:12:00,
2013-01-26 21:17:00,41.9,33.9,30.33,NW,306,0.0,0.0,73,0.00,,,0.00,WeatherTracker,2013-01-27 03:17:00,
2013-01-26 21:23:00,42.0,34.0,30.33,NW,306,0.0,0.0,73,0.00,,,0.00,WeatherTracker,2013-01-27 03:23:00,
2013-01-26 21:28:00,42.0,33.3,30.33,NW,307,0.0,0.0,71,0.00,,,0.00,WeatherTracker,2013-01-27 03:28:00,
2013-01-26 21:33:00,42.2,32.8,30.32,NW,307,0.0,0.0,69,0.00,,,0.00,WeatherTracker,2013-01-27 03:33:00,
2013-01-26 21:38:00,42.3,33.2,30.32,NW,307,0.0,0.0,70,0.00,,,0.00,WeatherTracker,2013-01-27 03:38:00,
2013-01-26 21:43:00,42.4,33.7,30.32,NW,307,0.0,0.0,71,0.00,,,0.00,WeatherTracker,2013-01-27 03:43:00,
2013-01-26 21:48:00,42.4,33.3,30.33,NW,307,0.0,0.0,70,0.00,,,0.00,WeatherTracker,2013-01-27 03:48:00,
2013-01-26 21:53:00,42.5,33.8,30.33,NW,307,0.0,0.0,71,0.00,,,0.00,WeatherTracker,2013-01-27 03:53:00,
2013-01-26 21:58:00,42.4,33.7,30.33,North,360,0.0,0.0,71,0.00,,,0.00,WeatherTracker,2013-01-27 03:58:00,
2013-01-26 22:03:00,42.2,33.8,30.33,North,360,0.0,0.0,72,0.00,,,0.00,WeatherTracker,2013-01-27 04:03:00,
2013-01-26 22:08:00,42.0,34.0,30.33,North,5,0.0,0.0,73,0.00,,,0.00,WeatherTracker,2013-01-27 04:08:00,
2013-01-26 22:13:00,41.6,33.9,30.33,ENE,63,0.0,0.0,74,0.00,,,0.00,WeatherTracker,2013-01-27 04:13:00,
2013-01-26 22:18:00,41.3,33.6,30.33,ENE,71,0.0,0.0,74,0.00,,,0.00,WeatherTracker,2013-01-27 04:18:00,
2013-01-26 22:23:00,41.1,33.5,30.33,ENE,71,0.0,0.0,74,0.00,,,0.00,WeatherTracker,2013-01-27 04:23:00,
2013-01-26 22:28:00,40.8,33.2,30.33,ENE,71,0.0,0.0,74,0.00,,,0.00,WeatherTracker,2013-01-27 04:28:00,
2013-01-26 22:33:00,40.7,33.1,30.33,ENE,71,0.0,0.0,74,0.00,,,0.00,WeatherTracker,2013-01-27 04:33:00,
2013-01-26 22:38:00,40.6,33.0,30.33,ENE,71,0.0,0.0,74,0.00,,,0.00,WeatherTracker,2013-01-27 04:38:00,
2013-01-26 22:44:00,40.5,32.5,30.33,ENE,71,0.0,0.0,73,0.00,,,0.00,WeatherTracker,2013-01-27 04:44:00,
2013-01-26 22:49:00,40.5,32.5,30.34,ENE,71,0.0,0.0,73,0.00,,,0.00,WeatherTracker,2013-01-27 04:49:00,
2013-01-26 22:54:00,40.7,32.7,30.34,ENE,71,0.0,0.0,73,0.00,,,0.00,WeatherTracker,2013-01-27 04:54:00,
2013-01-26 22:59:00,40.9,32.6,30.33,ENE,71,0.0,0.0,72,0.00,,,0.00,WeatherTracker,2013-01-27 04:59:00,
2013-01-26 23:00:00,40.9,32.6,30.33,ENE,71,0.0,0.0,72,0.00,,,0.00,WeatherTracker,2013-01-27 05:00:00,
2013-01-26 23:01:00,41.0,32.7,30.33,ENE,71,0.0,0.0,72,0.00,,,0.00,WeatherTracker,2013-01-27 05:01:00,
2013-01-26 23:02:00,41.0,32.7,30.33,ENE,71,0.0,0.0,72,0.00,,,0.00,WeatherTracker,2013-01-27 05:02:00,
2013-01-26 23:07:00,41.1,32.8,30.33,ENE,71,0.0,0.0,72,0.00,,,0.00,WeatherTracker,2013-01-27 05:07:00,
2013-01-26 23:12:00,41.2,32.5,30.33,ENE,71,0.0,0.0,71,0.00,,,0.00,WeatherTracker,2013-01-27 05:12:00,
2013-01-26 23:17:00,41.3,32.3,30.33,ENE,71,0.0,0.0,70,0.00,,,0.00,WeatherTracker,2013-01-27 05:17:00,
2013-01-26 23:22:00,41.3,31.9,30.33,ENE,71,0.0,0.0,69,0.00,,,0.00,WeatherTracker,2013-01-27 05:22:00,
2013-01-26 23:27:00,41.4,32.4,30.33,ENE,71,0.0,0.0,70,0.00,,,0.00,WeatherTracker,2013-01-27 05:27:00,
2013-01-26 23:32:00,41.3,32.3,30.33,ENE,71,0.0,0.0,70,0.00,,,0.00,WeatherTracker,2013-01-27 05:32:00,
2013-01-26 23:37:00,41.4,32.7,30.33,ENE,71,0.0,0.0,71,0.00,,,0.00,WeatherTracker,2013-01-27 05:37:00,
2013-01-26 23:42:00,41.4,33.1,30.33,ENE,71,0.0,0.0,72,0.00,,,0.00,WeatherTracker,2013-01-27 05:42:00,
2013-01-26 23:47:00,41.5,33.5,30.33,ENE,71,0.0,0.0,73,0.00,,,0.00,WeatherTracker,2013-01-27 05:47:00,
2013-01-26 23:53:00,41.5,33.2,30.33,ENE,71,0.0,0.0,72,0.00,,,0.00,WeatherTracker,2013-01-27 05:53:00,
2013-01-26 23:58:00,41.6,32.9,30.33,ENE,71,0.0,0.0,71,0.00,,,0.00,WeatherTracker,2013-01-27 05:58:00,